#timestamp,LO_Frequency,Hit,StdDev 
1550437215.1,286047002.0,N
1550437235.9,286047003.0,N
1550437255.7,286047000.3,N
1550437275.5,286047001.0,N
1550437295.4,286047002.5,N
1550437315.2,286047002.2,N
1550437335.1,286047002.7,N
1550437336.0,286047002.7,N
1550437355.8,286047002.8,N
1550437375.6,286047002.3,N
1550437395.5,286046998.5,N
1550437415.3,286047002.4,N
1550437435.2,286046998.1,N
1550437455.9,286046998.5,N
1550437475.7,286046998.5,N
1550437495.6,286047004.4,N
1550437515.4,286047004.4,N
1550437535.3,286047003.8,N
1550437555.1,286047004.1,N
1550437556.0,286047004.1,N
1550437575.8,286047002.7,N
1550437595.7,286047000.0,N
1550437615.5,286046999.8,N
1550437635.3,286047002.8,N
1550437655.2,286047000.6,N
1550437675.0,286047002.6,N
1550437675.9,286047002.6,N
1550437695.8,286047004.4,N
1550437715.6,286047002.3,N
1550437735.4,286046999.7,N
1550437755.5,286047001.0,N
1550437775.4,286046999.7,N
1550437795.2,286046998.2,N
1550437815.1,286047000.1,N
1550437816.0,286047000.1,N
1550437835.8,286047002.6,N
1550437855.6,286047002.2,N
1550437875.5,286047002.2,N
1550437895.3,286047003.4,N
1550437915.2,286047007.5,Y
1550437935.9,286047003.3,P
1550437955.7,286047004.0,P
1550437975.6,286047002.5,N
1550437995.4,286047001.0,N
1550438015.2,286047002.8,N
1550438035.1,286047001.9,N
1550438036.0,286047001.9,N
1550438055.8,286047001.5,N
1550438075.7,286047001.5,N
1550438095.5,286046999.9,N
1550438115.4,286047003.6,Y
1550438135.2,286046999.8,P
1550438155.0,286047002.0,N
1550438155.9,286047002.0,N
1550438175.8,286047002.1,N
1550438195.6,286047000.9,N
1550438215.4,286046999.9,N
1550438235.3,286046998.9,N
1550438255.1,286047001.2,N
1550438275.9,286047001.2,N
1550438295.7,286046999.0,N
1550438315.5,286046996.9,N
1550438335.4,286046998.3,N
1550438355.2,286047000.6,N
1550438375.1,286047001.0,N
1550438376.0,286047001.0,N
1550438395.8,286047001.2,N
1550438415.6,286047001.0,N
1550438435.5,286046999.5,N
1550438455.3,286046999.2,N
1550438475.1,286047001.0,N
1550438495.9,286046999.3,N
1550438515.7,286046999.1,N
1550438535.6,286046998.6,N
1550438555.4,286046996.6,N
1550438575.2,286046999.4,N
1550438595.1,286046997.0,N
1550438596.0,286046997.0,N
1550438615.8,286047001.1,N
1550438635.7,286046998.6,N
1550438655.5,286046998.4,N
1550438675.3,286046996.8,N
1550438695.2,286046997.1,N
1550438715.0,286046996.8,N
1550438715.9,286046996.8,N
1550438735.8,286046997.7,N
1550438755.6,286046997.7,N
1550438775.4,286047000.6,N
1550438795.3,286046997.4,N
1550438815.1,286046999.6,N
1550438835.8,286046999.0,N
1550438855.7,286046998.7,N
1550438875.5,286046999.6,N
1550438895.4,286046998.8,N
1550438915.2,286047001.0,N
1550438935.0,286046996.9,N
1550438935.9,286046996.9,N
1550438955.8,286046993.8,Y
1550438975.6,286046996.8,P
1550438995.5,286046996.8,P
1550439015.3,286046996.7,P
1550439035.1,286047001.0,N
1550439055.9,286046998.3,N
1550439075.7,286047001.1,N
1550439095.6,286046998.5,N
1550439115.4,286047002.2,N
1550439135.2,286047002.8,N
1550439155.1,286047000.6,N
1550439156.0,286047000.6,N
1550439175.8,286046998.5,N
1550439195.6,286047002.7,N
1550439215.5,286047004.3,N
1550439235.3,286047001.5,N
1550439255.2,286047002.0,N
1550439275.9,286047002.0,N
1550439295.7,286047000.6,N
1550439315.6,286046998.4,N
1550439335.4,286047001.0,N
1550439355.2,286047001.8,N
1550439375.1,286047002.1,N
1550439376.0,286047002.1,N
1550439395.8,286047001.9,N
1550439415.7,286047003.6,N
1550439435.5,286047005.9,N
1550439455.3,286047003.1,N
1550439475.2,286046999.7,N
1550439495.0,286046998.3,N
1550439495.9,286046998.3,N
1550439515.8,286047002.3,N
1550439535.6,286047000.5,N
1550439555.4,286047002.0,N
1550439575.3,286047005.9,Y
1550439595.1,286047001.6,P
1550439615.8,286046999.8,N
1550439635.7,286047004.3,P
1550439655.5,286047004.0,N
1550439675.4,286047000.0,N
1550439695.2,286047001.6,N
1550439715.0,286047000.0,N
1550439715.9,286047000.0,N
1550439735.8,286047001.2,N
1550439755.6,286047001.2,N
1550439775.5,286047001.2,N
1550439795.3,286047001.0,N
1550439815.1,286046999.9,N
1550439835.9,286047006.0,Y
1550439855.7,286047002.1,P
1550439875.6,286046998.1,P
1550439895.4,286046996.9,N
1550439915.2,286046997.7,N
1550439935.1,286046995.0,N
1550439936.0,286046995.0,N
1550439955.8,286046996.8,N
1550439975.7,286046999.2,N
1550439995.5,286046999.3,N
1550440015.3,286047000.0,N
1550440035.2,286047000.1,N
1550440055.0,286047000.0,N
1550440055.9,286047000.0,N
1550440075.8,286047000.8,N
1550440095.6,286046998.2,N
1550440115.4,286046997.3,N
1550440135.3,286046993.4,Y
1550440155.1,286046998.8,P
1550440175.9,286047001.2,P
1550440195.7,286047000.7,N
1550440215.5,286046999.1,N
1550440235.4,286047001.7,N
1550440255.2,286047001.7,N
1550440275.0,286047004.8,Y
1550440276.0,286047004.8,P
1550440295.8,286047004.1,N
1550440315.6,286047002.5,N
1550440335.5,286047000.1,N
1550440355.3,286047001.2,N
1550440375.1,286046998.5,N
1550440395.9,286047000.8,N
1550440415.7,286046998.8,N
1550440435.6,286046999.2,N
1550440455.4,286046999.3,N
1550440475.2,286046998.6,N
1550440495.1,286047000.5,N
1550440496.0,286047000.5,N
1550440515.8,286047000.7,N
1550440535.6,286046996.5,N
1550440555.5,286046999.0,N
1550440575.3,286046998.9,N
1550440595.2,286047000.7,N
1550440615.0,286046999.5,N
1550440615.9,286046999.5,N
1550440635.8,286046999.1,N
1550440655.6,286046999.2,N
1550440675.4,286046998.5,N
1550440695.3,286047000.6,N
1550440715.1,286047000.1,N
1550440735.9,286047000.2,N
1550440755.7,286046998.9,N
1550440775.5,286047000.3,N
1550440795.4,286046998.2,N
